[[{"header":{"parameterUnit":"m.s-1","parameterCategory":1,"la1":30.2991,"la2":30.254,"lo1":-89.0895,"lo2":-89.0444,"dy":0.0017,"dx":0.0017,"nx":28,"ny":28,"refTime":"2023-04-26T15:00:00:Z","depth":0,"parameterNumber":2,"parameterNumberName":"U-component_of_WINDS"},"data":[0,0,0,0,0,0,0,0,0,0,0,0,0,0,0,0,0,0,0,0,0,0,0,0,0,0,0,0,0,0,0,0,0,0,0,0,0,0,0,0,0,0,0,0,0,0,0,0,0,0,0,0,0,0,0,0,0,0,-4.8528,-4.8529,0,-4.8615,-4.8616,-4.8617,-4.8567,-4.8565,-4.8562,-4.856,-4.8646,-4.865,-4.8655,0,0,0,0,0,0,0,0,0,0,0,0,0,-4.8319,-4.8323,-4.8528,-4.8529,-4.8531,-4.8615,-4.8616,-4.8617,-4.8567,-4.8565,-4.8562,-4.8559,-4.8644,-4.865,-4.8655,0,0,0,0,0,0,0,0,0,0,0,0,0,-4.8408,-4.8324,-4.8528,-4.8516,-4.8516,-4.8614,-4.8616,-4.8617,-4.8568,-4.8564,-4.8561,-4.8557,-4.8643,-4.8649,-4.8656,-4.8771,0,0,-4.8677,-4.868,0,0,0,0,0,0,0,0,-4.8403,-4.8416,-4.8517,-4.8517,-4.8517,-4.8576,-4.8573,-4.8669,-4.8569,-4.8548,-4.856,-4.8556,-4.8626,-4.8634,-4.8658,-4.8775,-4.8778,-4.8677,-4.8682,-4.8684,-4.8686,0,0,0,0,0,0,0,-4.8397,-4.8412,-4.8562,-4.8518,-4.8518,-4.8506,-4.8514,-4.8591,-4.8606,-4.855,-4.8546,-4.8557,-4.8625,-4.8651,-4.8659,-4.878,-4.8677,-4.8683,-4.8687,-4.869,-4.8995,-4.8998,0,0,0,0,0,0,-4.8392,-4.8407,-4.856,-4.8565,-4.845,-4.8512,-4.8522,-4.8561,-4.8605,-4.8608,-4.856,-4.8555,-4.8641,-4.8651,-4.8662,-4.8798,-4.8684,-4.8691,-4.8695,-4.8991,-4.8995,-4.9,0,0,0,0,0,0,-4.8388,-4.8406,-4.8556,-4.8485,-4.8503,-4.852,-4.8564,-4.8565,-4.8591,-4.8613,-4.8615,-4.8585,-4.8639,-4.8653,-4.8744,-4.88,-4.8694,-4.87,-4.8986,-4.8992,-4.8998,-4.9072,0,0,0,0,0,0,-4.8382,-4.8405,-4.8449,-4.8487,-4.8507,-4.8637,-4.8568,-4.8569,-4.8603,-4.8596,-4.8636,-4.864,-4.8637,-4.8734,-4.8751,-4.8808,-4.8705,-4.8981,-4.8989,-4.8996,-4.9064,-4.908,-4.9093,0,0,0,0,0,-4.8374,-4.8466,-4.8451,-4.847,-4.8563,-4.8641,-4.8652,-4.8648,-4.8608,-4.8652,-4.8666,-4.8638,-4.8792,-4.8744,-4.8762,-4.8822,-4.8977,-4.8986,-4.8995,-4.9058,-4.9077,-4.9092,0,0,0,0,0,0,-4.8433,-4.847,-4.8455,-4.8561,-4.8598,-4.8632,-4.8687,-4.8668,-4.8717,-4.8709,-4.8701,-4.8711,-4.8806,-4.8824,-4.8769,-4.8936,-4.8878,-4.8891,-4.892,-4.8938,-4.8952,-4.8944,-4.8711,0,0,0,0,0,-4.8458,-4.8519,-4.8549,-4.864,-4.8659,-4.8671,-4.8704,-4.8698,-4.8736,-4.8751,-4.8772,-4.8809,-4.8866,-4.8903,-4.8957,-4.9068,-4.9075,-4.9118,-4.9133,-4.9144,-4.9154,-4.9214,-4.9233,-4.9029,-4.9029,-4.9029,0,0,-4.8511,-4.8539,-4.8578,-4.8652,-4.868,-4.8742,-4.8684,-4.8752,-4.8798,-4.8761,-4.8848,-4.8866,-4.8907,-4.9009,-4.9054,-4.9026,-4.9213,-4.9156,-4.9165,-4.9169,-4.9225,-4.9244,-4.9261,-4.9035,-4.9034,-4.9033,0,0,-4.8638,-4.8667,-4.8745,-4.8775,-4.8818,-4.8826,-4.8845,-4.8882,-4.8892,-4.8981,-4.8954,-4.9009,-4.9107,-4.9137,-4.9165,-4.9306,-4.9281,-4.9324,-4.9397,-4.9455,-4.947,-4.9485,-4.9533,-4.9551,-4.9335,-4.9335,-4.9335,0,-4.8697,-4.8791,-4.8787,-4.8858,-4.8891,-4.8863,-4.8941,-4.897,-4.9029,-4.9052,-4.9021,-4.9143,-4.9169,-4.9277,-4.9311,-4.9336,-4.9356,-4.9318,-4.9469,-4.9483,-4.9496,-4.9542,-4.9561,-4.934,-4.9339,-4.9339,-4.9338,0,-4.8861,-4.8927,-4.8985,-4.9043,-4.9083,-4.9158,-4.9165,-4.9206,-4.9197,-4.9208,-4.9298,-4.9328,-4.9387,-4.9413,-4.9404,-4.952,-4.9501,-4.947,-4.9411,-4.952,-4.9563,-4.9581,-4.9347,-4.9345,-4.9343,-4.9342,0,0,-4.9024,-4.9082,-4.9103,-4.9129,-4.9176,-4.9226,-4.93,-4.9358,-4.9393,-4.9435,-4.9495,-4.958,-4.9552,-4.9584,-4.9579,-4.963,-4.9738,-4.9593,-4.9593,-4.9617,-4.9865,-4.9887,-4.9907,-4.9724,-4.9727,-4.973,-4.9861,0,-4.9153,-4.9282,-4.9281,-4.94,-4.946,-4.9435,-4.9498,-4.9534,-4.9547,-4.9599,-4.9612,-4.9672,-4.963,-4.965,-4.9699,-4.9715,-4.9788,-4.9706,-4.9778,-4.9781,-4.9766,-4.993,-4.9953,-5.0075,-4.9878,-4.9881,-4.9883,0,-4.9319,-4.9368,-4.9493,-4.9531,-4.9557,-4.9614,-4.9668,-4.9719,-4.9759,-4.9764,-4.9801,-4.9789,-4.9863,-4.9805,-4.9907,-4.9851,-4.9881,-4.9893,-4.9898,-4.9902,-4.9836,-4.9937,-5.0114,-5.0132,-4.991,-4.9908,-4.9906,0,-4.9424,-4.9521,-4.9607,-4.9631,-4.9679,-4.9719,-4.9741,-4.9778,-4.9813,-4.9861,-4.9883,-4.9939,-4.9968,-5.0011,-5.0014,-4.9972,-5.0116,-5.0058,-5.0121,-5.0121,-5.015,-5.0147,-5.0332,-5.0174,-5.0174,-5.0173,-5.0173,0,-4.9566,-4.9642,-4.9655,-4.9708,-4.9793,-4.9793,-4.9877,-4.9895,-4.9928,-4.9984,-4.9966,-5.0019,-5.0021,-5.0074,-5.0078,-5.016,-5.0174,-5.018,-5.0179,-5.018,-5.0179,-5.0197,-5.0188,-5.0178,-5.0177,-5.0176,-5.0175,0,-4.9695,-4.9706,-4.9799,-4.9838,-4.9849,-4.991,-4.9943,-4.9993,-5.0005,-5.0076,-5.0092,-5.0111,-5.0173,-5.0181,-5.0254,-5.0256,-5.0355,-5.0347,-5.0341,-5.0339,-5.04,-5.0393,-5.0601,-5.0628,-5.0455,-5.0456,-5.0458,0,-4.9783,-4.9842,-4.9887,-4.9923,-4.9948,-5.0007,-5.0043,-5.0046,-5.0084,-5.0135,-5.0179,-5.024,-5.0289,-5.039,-5.0409,-5.0465,-5.0456,-5.0525,-5.0464,-5.0463,-5.0454,-5.0449,-5.0455,-5.0536,-5.0538,-5.0539,-5.054,0,-4.9938,-4.9941,-4.9995,-5.0051,-5.0095,-5.0139,-5.018,-5.0211,-5.0219,-5.0263,-5.0327,-5.0365,-5.0441,-5.0501,-5.0556,-5.0578,-5.056,-5.056,-5.0577,-5.0577,-5.057,-5.0572,-5.0371,-5.0554,-5.0553,-5.0552,-5.0551,-5.0551,-5.0048,-5.0098,-5.0138,-5.0199,-5.0231,-5.027,-5.0319,-5.0338,-5.0392,-5.0453,-5.0452,-5.0522,-5.0561,-5.0634,-5.066,-5.0714,-5.0691,-5.0716,-5.0722,-5.0728,-5.0733,-5.0565,-5.0725,-5.0724,-5.0724,-5.0724,-5.0723,0,-5.02,-5.0225,-5.028,-5.0339,-5.0387,-5.0369,-5.0414,-5.0454,-5.0516,-5.0555,-5.0604,-5.0678,-5.0736,-5.0761,-5.0819,-5.0858,-5.0851,-5.0873,-5.0868,-5.0873,-5.0751,-5.0729,-5.0877,-5.0877,-5.0877,-5.0877,-5.0877,-5.0877,-5.0284,-5.0368,-5.0377,-5.0477,-5.0501,-5.0571,-5.0598,-5.0634,-5.0665,-5.0748,-5.0797,-5.0814,-5.0846,-5.0907,-5.096,-5.0965,-5.0986,-5.1011,-5.1013,-5.0897,-5.0882,-5.0867,-5.0846,-5.1016,-5.1016,-5.113,-5.1131,-5.1132]},{"header":{"parameterUnit":"m.s-1","parameterCategory":1,"la1":30.2991,"la2":30.254,"lo1":-89.0895,"lo2":-89.0444,"dy":0.0017,"dx":0.0017,"nx":28,"ny":28,"refTime":"2023-04-26T15:00:00:Z","depth":0,"parameterNumber":3,"parameterNumberName":"V-component_of_WINDS"},"data":[0,0,0,0,0,0,0,0,0,0,0,0,0,0,0,0,0,0,0,0,0,0,0,0,0,0,0,0,0,0,0,0,0,0,0,0,0,0,0,0,0,0,0,0,0,0,0,0,0,0,0,0,0,0,0,0,0,0,3.6306,3.6307,0,3.6354,3.6354,3.6355,3.6322,3.632,3.6319,3.6317,3.6362,3.6365,3.6367,0,0,0,0,0,0,0,0,0,0,0,0,0,3.6187,3.6189,3.6306,3.6307,3.6308,3.6353,3.6354,3.6355,3.6322,3.632,3.6318,3.6317,3.6362,3.6365,3.6368,0,0,0,0,0,0,0,0,0,0,0,0,0,3.6237,3.619,3.6306,3.6297,3.6296,3.6353,3.6354,3.6355,3.6322,3.632,3.6318,3.6316,3.6361,3.6364,3.6368,3.6436,0,0,3.638,3.6382,0,0,0,0,0,0,0,0,3.6234,3.6241,3.6298,3.6298,3.6297,3.633,3.6328,3.6382,3.6323,3.6312,3.6317,3.6315,3.6353,3.6357,3.6371,3.6438,3.644,3.638,3.6383,3.6384,3.6385,0,0,0,0,0,0,0,3.6231,3.6239,3.6325,3.6299,3.6298,3.629,3.6294,3.6338,3.6344,3.6313,3.6311,3.6317,3.6352,3.6367,3.6372,3.6441,3.638,3.6384,3.6386,3.6387,3.6568,3.6571,0,0,0,0,0,0,3.6228,3.6236,3.6323,3.6326,3.626,3.6294,3.6299,3.6321,3.6344,3.6345,3.6319,3.6315,3.6362,3.6367,3.6373,3.6456,3.6384,3.6388,3.639,3.6566,3.6569,3.6572,0,0,0,0,0,0,3.6226,3.6236,3.6322,3.6281,3.6291,3.6298,3.6324,3.6323,3.6338,3.6348,3.6349,3.6333,3.636,3.6368,3.6421,3.6457,3.639,3.6393,3.6563,3.6567,3.657,3.6621,0,0,0,0,0,0,3.6223,3.6236,3.6262,3.6282,3.6293,3.6369,3.6326,3.6326,3.6345,3.6341,3.6362,3.6363,3.6359,3.6416,3.6425,3.6461,3.6396,3.656,3.6565,3.6569,3.6616,3.6626,3.6634,0,0,0,0,0,3.6218,3.6273,3.6263,3.6274,3.6326,3.6372,3.6378,3.6374,3.6348,3.6375,3.6381,3.6362,3.6452,3.6422,3.6432,3.6469,3.6557,3.6563,3.6569,3.6612,3.6624,3.6634,0,0,0,0,0,0,3.6255,3.6275,3.6265,3.6327,3.6348,3.6366,3.6399,3.6386,3.6413,3.6408,3.6401,3.6406,3.6462,3.6471,3.6437,3.6537,3.65,3.6508,3.653,3.6541,3.655,3.6547,3.6399,0,0,0,0,0,3.627,3.6306,3.6322,3.6375,3.6387,3.6391,3.6411,3.6406,3.6427,3.6435,3.6445,3.6466,3.6499,3.652,3.6551,3.6617,3.6622,3.6648,3.6657,3.6664,3.6671,3.6709,3.6721,3.659,3.659,3.659,0,0,3.6302,3.6318,3.6341,3.6383,3.6399,3.6436,3.6399,3.6439,3.6467,3.644,3.6493,3.6501,3.6524,3.6585,3.6612,3.6594,3.6709,3.6672,3.6677,3.668,3.6716,3.6729,3.674,3.6594,3.6593,3.6592,0,0,3.638,3.6395,3.6443,3.646,3.6485,3.6488,3.6499,3.652,3.6525,3.6578,3.656,3.6592,3.6648,3.6666,3.6682,3.6769,3.6753,3.6779,3.6827,3.6863,3.6874,3.6883,3.6916,3.6927,3.6786,3.6786,3.6786,0,3.6416,3.6473,3.6468,3.6511,3.6531,3.6511,3.6559,3.6576,3.6609,3.6623,3.6602,3.6675,3.6688,3.6754,3.6775,3.6789,3.6802,3.6777,3.6873,3.6882,3.689,3.6921,3.6934,3.6789,3.6789,3.6789,3.6788,0,3.6517,3.6556,3.6592,3.6627,3.665,3.6695,3.6698,3.6722,3.6716,3.6721,3.6776,3.6792,3.6826,3.6841,3.6834,3.6907,3.6895,3.6874,3.6837,3.6906,3.6935,3.6947,3.6794,3.6793,3.6792,3.6791,0,0,3.6617,3.6651,3.6664,3.6681,3.6708,3.6738,3.6783,3.6819,3.6841,3.6864,3.6903,3.6952,3.6934,3.6952,3.6947,3.6979,3.705,3.6954,3.6955,3.6973,3.7132,3.7149,3.7163,3.7039,3.7042,3.7043,3.7131,0,3.6698,3.6777,3.6776,3.685,3.6887,3.687,3.6909,3.693,3.6937,3.6969,3.6976,3.7012,3.6984,3.6995,3.7026,3.7035,3.7082,3.7028,3.7075,3.7077,3.7071,3.7177,3.7194,3.7276,3.7142,3.7144,3.7145,0,3.6801,3.6832,3.691,3.6934,3.695,3.6985,3.7019,3.705,3.7073,3.7076,3.7098,3.7089,3.7135,3.7097,3.7161,3.7124,3.7144,3.7151,3.7154,3.7158,3.7116,3.7186,3.7302,3.7315,3.7163,3.7161,3.716,0,3.6869,3.6929,3.6984,3.6998,3.7027,3.7053,3.7066,3.7088,3.711,3.7139,3.7154,3.7187,3.7206,3.7232,3.7232,3.7204,3.7297,3.7259,3.7301,3.7301,3.7322,3.732,3.7444,3.7333,3.7333,3.7332,3.7332,0,3.6959,3.7008,3.7015,3.7049,3.7104,3.7102,3.7156,3.7166,3.7186,3.7222,3.7208,3.7242,3.724,3.7274,3.7275,3.7329,3.7336,3.734,3.734,3.7342,3.7342,3.7355,3.7349,3.7336,3.7335,3.7334,3.7334,0,3.7044,3.705,3.7109,3.7133,3.714,3.718,3.72,3.7232,3.7239,3.7284,3.7295,3.7304,3.7344,3.7347,3.7393,3.7393,3.7459,3.7452,3.7451,3.745,3.7493,3.749,3.763,3.7649,3.7525,3.7526,3.7527,0,3.7101,3.7139,3.7167,3.7191,3.7207,3.7245,3.7268,3.7268,3.7293,3.7324,3.7353,3.7392,3.7424,3.7488,3.7499,3.7534,3.7529,3.7575,3.7534,3.7535,3.7531,3.7529,3.7534,3.7583,3.7585,3.7586,3.7587,0,3.7203,3.7205,3.724,3.7277,3.7306,3.7334,3.736,3.7381,3.7384,3.7412,3.7454,3.7479,3.7527,3.7566,3.7601,3.7614,3.7602,3.76,3.7612,3.7615,3.7614,3.7616,3.7475,3.7597,3.7596,3.7595,3.7594,3.7594,3.7277,3.731,3.7337,3.7376,3.7397,3.7423,3.7455,3.7467,3.7502,3.7542,3.754,3.7586,3.7611,3.7657,3.7673,3.7709,3.7693,3.771,3.7715,3.7719,3.7725,3.7608,3.7715,3.7715,3.7715,3.7715,3.7714,0,3.7379,3.7396,3.7433,3.7472,3.7504,3.749,3.752,3.7547,3.7588,3.7613,3.7645,3.7694,3.7732,3.7747,3.7785,3.7811,3.7807,3.7821,3.782,3.7823,3.7736,3.7722,3.7825,3.7825,3.7825,3.7825,3.7825,3.7825,3.7437,3.7494,3.7499,3.7566,3.7582,3.7629,3.7647,3.7671,3.7691,3.7747,3.778,3.779,3.7811,3.785,3.7886,3.7889,3.7904,3.7921,3.7922,3.784,3.7829,3.7819,3.7806,3.7924,3.7924,3.8007,3.8008,3.8008]}]]